Regional Weather Roundup
Issued by NWS Midland/Odessa, TX

Skip options and go directly to product.
Home | Oldest Version | Previous Version | Current Version | All | Graphics & Text | Save Text | Print | Product List | Glossary On

Skip product version selection by date and time.   
544
ASUS44 KMAF 071510
RWRMAF
MIDLAND AREA WEATHER ROUNDUP
NATIONAL WEATHER SERVICE MIDLAND TX
900 AM CST SUN FEB 07 2016

...IN SOUTHWEST TEXAS AND SOUTHEAST NEW MEXICO...

CITY           SKY/WX    TMP DP  RH WIND       PRES   REMARKS
ALPINE         MOSUNNY   52   1  12 W7        30.29R
ANDREWS        FAIR      41  10  27 W7        30.18S WCI  37
ARTESIA        CLOUDY    36  14  41 W6        30.22F WCI  31
BIG SPRING     CLOUDY    37  17  44 S7        30.20S WCI  32
CARLSBAD       CLOUDY    34  15  46 N13       30.22R WCI  25
DRYDEN           N/A     44  11  26 SW7       30.21S
FORT STOCKTON  CLOUDY    51  10  19 SW12      30.21R
GUAD PASS      CLOUDY    36   3  25 SW16G24   30.25R WCI  26
HOBBS          SUNNY     48  10  21 W17G25    30.18F
MARFA          SUNNY     34   9  35 SE5       30.29S WCI  30
MIDLAND AIRPK  CLOUDY    46  12  25 W9        30.19S
MIDLAND INTL   CLOUDY    45  13  27 W9        30.19R
ODESSA         SUNNY     42  13  30 W6        30.19R WCI  38
PECOS          CLOUDY    44  11  26 N9        30.23R WCI  39
PRESIDIO       FAIR      40  10  28 CALM      30.31R
SEMINOLE       CLOUDY    42  15  34 NW15      30.17F WCI  34
SNYDER           N/A     37  20  49 W12       30.16R WCI  29
WINK           CLOUDY    35  14  42 CALM      30.20R
$$
...OTHER STATIONS IN TEXAS...

CITY           SKY/WX    TMP DP  RH WIND       PRES   REMARKS
ABILENE        SUNNY     45  19  35 SW13G22   30.14R WCI  39
AMARILLO       CLOUDY    36  21  54 N17       30.20R WCI  26
AUSTIN         MOSUNNY   41  35  79 CALM      30.28S
BROWNSVILLE    SUNNY     54  42  64 CALM      30.34R
CORPUS CHRISTI MOSUNNY   52  44  74 CALM      30.31S
DALLAS FTW     MOSUNNY   42  35  76 S10       30.23R WCI  36
DEL RIO        SUNNY     44  22  41 E9        30.26F WCI  39
EL PASO        PTSUNNY   32  11  41 CALM      30.30S
HOUSTON INT    MOSUNNY   46  40  79 SE7       30.30S
LUBBOCK        MOSUNNY   39  18  42 NW13      30.15R WCI  31
SAN ANGELO     CLOUDY    44  21  40 W5        30.19S
SAN ANTONIO    MOSUNNY   42  34  73 CALM      30.30R
WACO           CLOUDY    40  36  86 S10       30.26S WCI  33
WICHITA FALLS  NOT AVBL
$$
...OTHER LOCATIONS IN NEW MEXICO...

CITY           SKY/WX    TMP DP  RH WIND       PRES   REMARKS
ALAMAGORDO     CLOUDY    27   7  43 S5        30.29F WCI  21
ALBUQUERQUE    CLOUDY    35  16  45 N7        30.38R WCI  29
CANNON AFB     CLOUDY    40  17  40 N14       30.20R WCI  32
CLOVIS         CLOUDY    39  18  41 N21       30.22R WCI  29
HOLLOMAN AFB   CLOUDY    28   6  39 SE2       30.28S
ROSWELL        CLOUDY    35  17  47 SW5       30.22R WCI  31
RUIDOSO          N/A     39   7  26 NW6       30.31R WCI  35
SANTA FE       CLOUDY    29  14  53 N15G22    30.32R WCI  18
TRUTH OR CONSE SUNNY     31   9  39 N3        30.32S
TUCUMCARI      CLOUDY    32  20  61 CALM      30.24R
$$

USA.gov is the U.S. government's official web portal to all federal, state and local government web resources and services.